This is the latest recevied weather packets stored in our database for station/object K6CQU-13. If no packets are shown the sender has not sent any weather packets the latest 10 day(s).
| Time | Temp. | Humidity | Pressure | Rain* | Wind** | Luminosity | Snow |
|---|---|---|---|---|---|---|---|
| 1777858217 | 17.22° C | 62% | 1012 hPa | 0 mm | - | 82 W/m² | - |
| 1777857917 | 17.22° C | 61% | 1011.9 hPa | 0 mm | - | 107 W/m² | - |
| 1777857617 | 17.78° C | 61% | 1011.9 hPa | 0 mm | - | 124 W/m² | - |
| 1777857317 | 17.22° C | 61% | 1011.9 hPa | 0 mm | - | 102 W/m² | - |
| 1777857017 | 17.22° C | 61% | 1011.9 hPa | 0 mm | - | 90 W/m² | - |
| 1777856717 | 17.22° C | 61% | 1011.9 hPa | 0 mm | - | 110 W/m² | - |
| 1777856417 | 17.22° C | 61% | 1011.9 hPa | 0 mm | - | 123 W/m² | - |
| 1777856117 | 17.22° C | 61% | 1011.8 hPa | 0 mm | - | 169 W/m² | - |
| 1777855817 | 17.22° C | 61% | 1011.8 hPa | 0 mm | - | 158 W/m² | - |
| 1777855517 | 17.78° C | 60% | 1011.9 hPa | 0 mm | - | 148 W/m² | - |
| 1777855217 | 17.78° C | 60% | 1011.8 hPa | 0 mm | - | 158 W/m² | - |
| 1777854917 | 17.78° C | 60% | 1011.8 hPa | 0 mm | - | 162 W/m² | - |
| 1777854617 | 17.78° C | 60% | 1011.8 hPa | 0 mm | - | 157 W/m² | - |
| 1777854317 | 18.33° C | 60% | 1011.7 hPa | 0 mm | - | 181 W/m² | - |
| 1777854017 | 18.33° C | 59% | 1011.7 hPa | 0 mm | - | 171 W/m² | - |
| 1777853716 | 18.89° C | 57% | 1011.6 hPa | 0 mm | - | 145 W/m² | - |
| 1777853417 | 18.89° C | 58% | 1011.7 hPa | 0 mm | - | 213 W/m² | - |
| 1777853117 | 18.89° C | 58% | 1011.5 hPa | 0 mm | - | 232 W/m² | - |
| 1777852817 | 19.44° C | 57% | 1011.5 hPa | 0 mm | - | 213 W/m² | - |
| 1777852517 | 19.44° C | 55% | 1011.6 hPa | 0 mm | - | 166 W/m² | - |
| 1777852217 | 20° C | 54% | 1011.4 hPa | 0 mm | - | 220 W/m² | - |
| 1777851917 | 20° C | 53% | 1011.4 hPa | 0 mm | - | 211 W/m² | - |
| 1777851616 | 20.56° C | 53% | 1011.5 hPa | 0 mm | - | 184 W/m² | - |
| 1777851317 | 20.56° C | 52% | 1011.4 hPa | 0 mm | - | 208 W/m² | - |
| 1777851016 | 20.56° C | 52% | 1011.3 hPa | 0 mm | - | 384 W/m² | - |
* Rain latest hour (hover to see other rain measurements)
** Current wind speed in m/s (hover to see current wind gust speed)